Zurück zum Katalog

USA 200

AktivMilitärHEO
NORAD 32706·PAYLOAD·🇺🇸 United States

Gestartet Mar 13, 2008 von Vandenberg Space Force Base

Loading…

Nächste Überflüge (nächste 24 Stunden)

TLE

AktuellSource: Mike McCants

Epoche: Sep 14, 2026, 21:41 UTC

1 32706U 08010A   26257.90368145  .00000228  00000-0  00000-0 0    00
2 32706  63.4470 301.9510 7144328 268.9662  16.1203  2.00636144  5296

Verfolge USA 200 in Echtzeit mit AllMySat

Download on the App Store